Miscellaneous Local Product
Issued by NWS Hastings, NE

Home | Current Version | Previous Version | Graphics & Text | Print | Product List | Glossary On
Versions: 1 2 3 4 5 6 7 8 9 10 11 12 13 14 15 16 17 18 19 20 21 22 23 24 25 26 27 28 29 30 31 32 33 34 35 36 37 38 39 40 41 42 43 44 45 46 47 48 49 50
000
AXUS43 KGID 210502
MISGRI

GID CWA HOURLY WEATHER ROUNDUP
NATIONAL WEATHER SERVICE HASTINGS NE
1200 AM CDT FRI JUL 21 2017

NOTE: "FAIR" INDICATES FEW OR NO CLOUDS BELOW 12,000 FEET WITH NO
SIGNIFICANT WEATHER AND/OR OBSTRUCTIONS TO VISIBILITY.

...SOUTH CENTRAL NEBRASKA...

CITY           SKY/WX    TMP DP  RH WIND       PRES   REMARKS
GRAND ISLAND   CLEAR     81  74  79 S12       29.89S
HASTINGS       CLEAR     82  70  66 S8        29.91S
KEARNEY        CLEAR     80  71  74 S10       29.90R
ORD            MOCLDY    76  72  87 CALM      29.87F
YORK           CLEAR     81  73  78 S8        29.90S
AURORA         CLEAR     80  73  79 S10       29.89S
LEXINGTON      CLEAR     80  75  86 SE9       29.89S
HOLDREGE       CLEAR     77  67  70 SE9       29.90R
HEBRON         CLEAR     86  67  53 S9G16     29.90S

...NEBRASKA PANHANDLE...

CITY           SKY/WX    TMP DP  RH WIND       PRES   REMARKS
CHADRON        CLOUDY    82  60  47 S9        29.91S
ALLIANCE       PTCLDY    73  63  70 S7        29.98S
SCOTTSBLUFF    PTCLDY    77  63  61 VRB3      30.00R THUNDER
SIDNEY         CLOUDY    72  61  68 S5        30.04R

...WESTERN AND NORTH CENTRAL NEBRASKA...

CITY           SKY/WX    TMP DP  RH WIND       PRES   REMARKS
VALENTINE      PTCLDY    80  67  64 SE10      29.90F
AINSWORTH      CLEAR     76  74  94 SE7       29.91F
ONEILL         CLOUDY    78  76  93 SE7       29.89F
BROKEN BOW     CLEAR     78  75  90 SE7       29.90F
IMPERIAL       CLOUDY    76  67  73 CALM      29.92S
NORTH PLATTE   CLOUDY    77  76  96 E9        29.89S
MCCOOK         CLEAR     84  61  45 S9        29.88S

...EASTERN NEBRASKA...

CITY           SKY/WX    TMP DP  RH WIND       PRES   REMARKS
NORFOLK        CLOUDY    77  69  76 E8        29.88F
SO SIOUX CITY  CLEAR     76  68  76 E5        29.89F
TEKAMAH        CLOUDY    77  71  82 NE5       29.89S
COLUMBUS       CLOUDY    77  76  96 E8        29.88F
ALBION         CLEAR     78  74  87 SE6       29.89F
OMAHA EPPLEY   CLOUDY    87  77  72 SE12      29.89R HX  99
OFFUTT AFB     CLOUDY    82  78  85 E6        29.89R HX  91
MILLARD        CLOUDY    87  80  80 SE3       29.90R HX 101
LINCOLN        CLEAR     82  71  69 S8        29.89S
NEBRASKA CITY  CLEAR     82  77  86 S8        29.92R
BEATRICE       CLEAR     86  68  55 S10       29.90S
FALLS CITY     CLEAR     85  73  67 S12       29.91R HX  91

...NORTHERN KANSAS...

CITY           SKY/WX    TMP DP  RH WIND       PRES   REMARKS
GOODLAND       CLEAR     78  65  63 S12       29.97S
HILL CITY      CLEAR     84  59  42 S6        29.90R
NORTON         CLEAR     81  52  36 SE8       29.89R
PHILLIPSBURG   CLEAR     88  57  35 S12       29.89R
SMITH CENTER   CLEAR     81  61  50 SE10      29.90R
HAYS           CLEAR     85  60  42 S14       29.91S
RUSSELL        CLEAR     86  60  41 S14       29.90S
CONCORDIA      PTCLDY    86  66  51 S15       29.90S
SALINA         CLEAR     90  64  42 S17       29.91R HX  91
TOPEKA         CLEAR     85  75  72 S9        29.94S HX  93



USA.gov is the U.S. government's official web portal to all federal, state and local government web resources and services.